Location: Warszawa
(52.2500°N, 21.0000°E)
Time: 20:43:01
(UTC+02:00)

A-11 Canister half - Pass Details

Date: 08 February 2023
Orbit: 1526 x 1682 km, 47.3° (Epoch: 27 March)

Event Time Altitude Azimuth Distance (km) Brightness Sun altitude
Exits shadow 02:12:50 14° 134° (SE) 3,362 10.8 -43.3°
Maximum altitude 02:13:50 14° 127° (SE) 3,344 10.8 -43.2°
Drops below altitude 10° 02:18:15 10° 98° (E) 3,696 11.4 -42.7°
Sets 02:23:09 0° 76° (ENE) 4,692 12.3 -42.1°
